Theta_e
348 347 349 348 349 348 345 341 338 337 335 334 333 336 335 337 338 338 343 347 346 345 346 348 348 349 350 350 349 349 349 348 346 347 348 347 347 347 346 345 344 343 342
352 347 349 350 350 350 348 343 338 335 334 334 336 335 337 339 339 339 343 343 349 350 349 347 345 345 346 347 346 345 344 342 340 339 338 339 340 343 344 348 347 346 345
355 356 348 350 351 366 354 347 341 337 333 334 337 337 338 339 339 340 338 341 343 349 348 345 342 339 337 336 335 335 334 334 333 332 332 333 334 336 338 342 347 347 346
354 358 347 349 351 363 356 345 340 335 332 333 335 336 338 338 339 338 335 334 339 342 345 344 340 337 335 335 336 334 333 333 332 332 331 332 333 333 334 335 337 340 342
348 352 346 346 355 352 352 347 341 340 333 333 333 336 338 336 337 333 334 336 337 336 345 343 340 337 335 335 333 332 332 332 331 331 330 331 332 333 333 333 333 333 334
349 352 346 350 353 351 351 348 348 341 335 334 330 335 337 335 335 334 332 333 335 336 339 341 339 335 334 333 331 330 329 329 330 330 331 331 332 333 333 333 333 333 333
351 357 347 352 354 353 356 352 344 343 334 337 332 333 335 336 336 334 334 332 334 335 338 339 339 336 331 336 332 329 328 328 328 330 331 332 331 331 332 331 331 332 334
352 351 352 349 355 349 356 350 351 341 335 336 331 329 327 331 333 335 334 332 335 334 335 337 338 338 337 333 335 334 330 327 329 331 332 333 331 331 331 330 330 329 330
349 351 352 350 356 355 349 353 349 347 334 334 344 330 325 322 329 335 337 333 337 333 335 336 338 338 339 338 335 335 331 327 329 331 332 332 330 330 330 329 329 329 330
350 349 349 351 356 350 356 351 347 349 345 332 333 335 342 339 330 326 335 336 336 336 342 334 337 339 340 339 339 336 331 327 329 330 329 330 329 328 328 328 328 329 328
349 345 350 352 353 355 359 360 354 353 344 335 328 330 338 331 338 325 321 330 333 334 334 336 336 336 343 340 337 333 329 327 327 326 326 324 326 326 326 327 327 326 327
349 351 347 351 352 354 355 351 351 349 346 345 335 335 329 328 328 326 324 327 329 333 332 334 337 335 336 337 339 330 329 327 326 322 322 322 323 324 325 325 325 325 327
348 355 354 354 353 358 355 352 348 346 347 341 348 333 332 330 328 326 324 323 322 328 331 334 333 334 333 336 333 330 328 325 322 320 320 320 321 322 322 321 322 324 324
354 358 356 356 352 350 348 347 343 341 343 343 346 345 335 335 331 330 328 323 319 323 327 337 332 332 333 333 328 326 326 324 321 321 319 319 320 318 318 318 320 320 320
351 353 352 351 347 346 345 345 342 340 343 342 342 345 342 341 335 335 330 326 321 316 318 331 326 339 333 333 330 330 329 322 322 320 319 319 318 317 316 317 317 316 318
347 348 348 347 345 345 344 342 340 342 342 339 338 340 341 340 336 335 332 329 324 321 316 321 329 334 338 332 328 329 328 324 324 321 318 318 318 315 315 315 314 315 318
345 344 346 345 344 341 341 341 340 338 336 336 340 339 340 340 337 333 332 327 324 322 318 321 326 337 336 333 329 329 329 330 327 321 318 318 316 314 314 313 314 315 317
343 341 344 341 340 339 340 337 337 336 335 334 338 338 338 335 342 341 332 338 330 334 324 331 333 327 331 332 331 330 328 326 327 320 320 317 314 314 314 313 314 313 312
336 336 338 338 339 339 339 339 337 336 335 335 336 337 338 339 341 333 333 330 328 328 331 325 323 325 325 328 327 330 331 335 329 319 319 318 316 315 314 314 313 311 309
337 336 337 340 342 341 338 338 337 336 335 334 335 337 336 336 337 338 336 333 334 332 331 326 322 321 323 332 327 325 326 330 327 327 322 323 321 317 314 315 314 312 309
338 337 335 339 341 340 337 336 336 335 335 334 335 336 338 334 329 334 333 334 336 332 326 326 322 321 322 323 325 328 325 326 331 328 325 325 326 323 318 317 316 312 309
331 336 336 336 336 333 318 313 324 336 336 334 335 336 338 328 327 319 320 320 329 336 332 327 326 326 333 330 329 326 325 322 321 330 325 323 327 325 324 320 310 309 308
328 328 331 335 334 336 315 312 314 330 333 339 340 339 336 334 327 331 318 316 315 317 322 337 335 335 337 337 338 332 332 327 324 326 324 320 326 323 324 315 309 308 307
326 327 327 327 330 333 314 308 309 330 338 337 338 339 337 335 333 329 328 324 322 323 323 329 335 338 342 340 339 333 332 330 329 326 327 318 326 323 325 318 308 307 306
324 324 324 326 330 332 312 306 312 326 327 332 336 339 336 335 322 309 328 326 324 322 318 315 317 312 312 313 325 328 323 321 320 322 326 322 322 322 322 318 314 307 305
323 320 321 325 320 328 315 305 312 330 329 328 334 335 317 325 313 308 323 329 325 322 323 316 317 313 315 316 309 329 328 322 320 320 328 321 320 320 317 322 319 315 315
Wind_Speed
7 6 5 6 3 2 3 2 2 3 1 4 4 2 4 5 5 3 8 10 5 4 4 6 6 6 7 7 7 7 7 8 6 9 4 5 9 11 13 14 13 13 11
6 6 6 6 5 5 3 3 2 1 4 4 2 4 1 0 3 3 9 9 7 5 7 6 6 7 7 7 8 8 7 6 5 5 7 7 9 10 13 14 15 13 12
7 7 7 6 7 1 0 3 2 3 5 4 0 2 4 2 3 1 5 9 9 8 8 6 5 6 7 8 9 8 7 6 6 7 7 8 9 10 11 13 11 13 13
10 8 8 6 7 3 3 4 5 4 4 4 2 4 3 2 2 3 6 3 5 10 8 7 5 6 7 8 8 7 6 6 7 7 7 8 9 9 11 12 11 11 11
13 9 8 7 5 5 5 4 5 4 3 5 4 4 2 4 3 6 2 3 2 5 9 10 6 5 5 5 6 5 5 5 5 6 7 8 9 10 11 11 11 10 11
11 11 9 7 6 6 7 4 5 3 6 4 8 7 2 4 4 2 4 6 5 5 4 9 8 7 6 4 3 3 3 3 4 5 6 8 9 10 11 12 11 11 11
8 6 7 6 7 6 6 5 5 5 6 5 5 2 4 4 4 6 5 6 5 6 5 5 7 8 7 8 6 3 1 2 3 5 6 7 9 10 11 13 13 14 13
8 10 10 7 9 7 7 7 6 6 6 4 6 6 5 7 8 8 6 6 6 7 6 7 8 2 6 9 11 11 6 2 5 8 8 6 9 10 12 14 15 15 14
14 11 12 10 8 7 8 8 8 7 6 5 7 7 4 6 5 9 8 7 6 7 6 7 5 5 4 6 10 10 6 3 5 9 10 9 9 11 14 15 16 16 16
11 10 10 10 8 9 8 9 8 7 6 7 6 7 9 8 6 2 8 9 7 7 7 6 8 7 7 7 5 5 10 1 5 9 9 8 9 12 15 16 16 17 18
14 14 11 7 6 4 5 4 7 8 5 6 7 6 7 8 9 8 10 7 9 7 8 8 8 7 9 7 6 11 7 3 5 6 5 7 10 14 16 16 17 19 20
11 12 13 10 10 9 8 7 6 6 5 5 6 8 8 6 8 9 9 10 8 9 8 7 8 8 6 6 7 12 8 7 5 4 5 8 11 14 14 16 18 19 20
10 12 12 11 11 9 8 8 8 7 5 5 5 7 8 8 9 9 7 9 8 3 5 5 7 7 8 4 2 3 8 8 5 2 5 7 10 12 14 16 17 19 21
4 11 13 11 12 12 11 9 7 7 7 7 8 7 8 9 8 7 7 8 9 5 5 6 7 7 5 5 7 4 6 9 6 2 3 5 7 12 13 15 16 18 20
4 9 12 12 11 13 14 13 10 11 11 9 12 10 7 7 9 6 7 8 9 9 8 9 7 6 5 5 3 3 3 11 8 6 2 3 6 10 11 13 15 19 20
7 9 11 13 14 15 15 15 12 14 14 10 7 10 11 8 10 5 7 6 7 8 9 3 6 3 6 4 6 3 5 7 12 9 4 3 4 7 9 13 16 18 19
6 9 10 12 12 13 11 11 12 13 13 12 9 9 11 10 7 6 7 7 7 7 8 3 3 7 5 4 4 3 5 6 7 10 6 2 2 3 7 11 14 16 16
5 7 10 10 11 12 10 12 12 12 14 13 10 10 10 9 11 7 7 7 7 5 7 3 3 4 6 6 6 5 5 5 2 10 10 6 5 2 4 7 11 13 11
5 5 7 9 12 14 13 12 13 12 13 11 9 9 11 10 8 9 9 8 8 5 5 5 5 5 6 6 6 6 6 6 5 15 11 10 9 6 4 9 11 11 11
6 5 9 12 13 11 10 11 11 9 12 12 10 10 8 10 10 10 9 8 7 6 6 5 6 6 5 6 6 6 7 7 4 2 3 2 10 10 5 11 14 11 11
4 5 6 10 10 9 9 10 9 9 11 12 12 11 10 11 11 13 10 11 9 8 8 8 7 7 7 6 7 7 4 3 3 4 2 4 2 8 8 14 11 9 10
9 6 7 8 9 5 8 3 8 9 10 12 13 13 12 9 12 10 12 9 11 9 10 8 9 8 8 7 5 4 5 4 4 5 2 3 3 3 5 7 8 6 7
7 8 9 6 9 10 12 15 15 11 13 14 14 13 12 11 12 12 12 13 7 10 9 8 8 6 4 6 4 4 5 4 6 5 2 5 4 3 7 8 10 7 6
8 8 7 9 10 8 12 11 12 13 15 15 15 13 12 12 11 12 9 9 6 9 10 9 6 6 5 4 4 3 4 2 5 6 4 4 2 2 4 8 12 9 7
9 8 8 8 10 9 8 11 10 9 10 14 15 15 12 13 14 14 14 15 17 17 10 9 5 8 6 2 7 5 5 5 7 6 6 3 3 1 5 10 8 10 9
9 8 9 9 11 11 9 8 8 9 10 9 13 14 15 15 12 16 15 16 16 16 14 9 5 5 6 4 5 4 2 5 7 8 3 4 2 3 3 6 8 8 7
Wind_Direction
232 221 253 266 228 195 202 244 286 11 227 239 285 293 303 348 8 310 102 95 88 96 102 98 98 92 90 92 88 81 70 71 44 31 357 320 287 283 278 274 274 271 274
220 231 225 231 256 241 239 294 160 288 258 327 167 279 266 277 245 345 124 124 112 102 101 99 97 96 99 94 86 80 73 61 45 30 23 4 4 331 339 292 269 270 267
220 230 227 231 241 114 84 270 255 210 262 238 49 228 241 254 168 295 289 145 141 123 115 115 107 101 97 95 92 86 78 67 43 32 21 7 353 350 345 349 331 290 279
222 195 240 230 248 147 192 231 233 239 250 242 208 255 164 252 133 224 256 252 159 141 153 138 122 114 109 105 95 89 76 63 49 34 26 13 1 353 349 353 355 352 348
199 224 218 228 232 263 246 221 224 271 234 281 222 223 266 254 167 207 56 248 177 265 140 136 141 134 125 114 90 77 68 57 43 27 14 8 1 354 354 349 353 343 339
207 181 231 227 211 220 245 209 275 238 294 244 279 146 241 234 213 227 218 230 173 234 239 156 174 158 157 152 119 74 49 38 30 13 356 357 356 356 350 342 335 331 330
192 185 224 191 230 238 251 171 210 227 253 260 267 226 213 234 268 263 211 228 176 215 193 188 229 155 171 196 193 188 226 331 337 329 335 349 348 347 342 337 338 333 322
199 203 208 225 198 219 206 203 214 239 213 224 249 257 236 203 211 221 248 229 188 232 195 203 229 233 158 193 187 201 197 259 311 314 315 330 334 332 331 332 330 325 321
204 206 196 223 196 207 190 196 206 220 252 210 195 279 258 273 219 182 212 243 203 246 231 198 196 212 218 288 168 188 180 230 311 319 319 318 327 327 322 329 323 325 327
220 214 217 203 218 193 234 177 205 222 219 259 191 231 284 325 327 218 196 202 239 222 252 252 184 220 232 229 232 107 163 153 333 327 327 330 329 324 322 322 326 327 325
209 215 200 203 204 223 198 233 184 204 215 244 266 229 233 253 246 269 292 186 198 229 235 212 269 206 203 242 262 87 100 52 4 339 0 345 333 322 322 329 331 330 323
198 210 201 196 195 191 216 185 200 208 230 288 250 287 264 251 242 243 253 267 239 190 219 233 204 246 243 214 211 120 108 73 68 47 358 339 328 320 331 334 331 325 326
205 186 192 196 187 184 178 166 181 185 213 238 263 267 276 271 274 275 281 274 276 200 168 248 243 228 237 215 120 84 122 123 120 31 344 328 322 332 335 332 330 330 329
224 162 181 171 166 170 181 172 183 189 192 216 220 247 267 285 268 278 270 279 275 241 201 204 219 235 221 213 101 105 167 151 150 150 306 321 330 342 340 330 339 333 329
114 138 159 174 187 186 174 167 185 186 191 194 202 179 240 266 283 263 266 268 272 273 238 171 220 195 218 178 166 244 278 160 184 189 221 273 343 347 339 348 345 335 332
167 178 187 198 199 198 197 196 201 198 201 197 197 181 177 216 249 242 261 259 264 273 284 225 191 185 189 236 152 214 255 202 205 175 213 256 343 344 358 359 350 339 336
206 196 201 210 207 206 207 209 221 219 217 216 208 193 200 186 244 221 229 237 240 248 259 265 102 125 157 222 218 216 253 250 142 156 202 173 29 9 16 10 357 348 355
199 188 184 217 222 216 209 223 226 223 217 219 211 217 217 202 213 243 237 228 227 228 268 241 171 159 218 192 232 241 265 288 296 172 189 159 179 157 34 10 1 12 14
282 280 263 215 231 233 236 234 237 223 217 229 239 232 214 217 206 221 227 216 219 219 221 268 206 233 194 205 212 236 240 236 243 154 177 181 198 164 71 55 28 35 45
294 287 272 244 238 239 236 239 226 230 233 217 232 257 254 227 209 202 224 242 218 197 215 232 226 200 214 191 216 253 209 204 233 228 171 178 197 144 104 97 47 57 61
329 282 277 280 270 247 239 235 231 241 225 229 230 241 247 252 221 204 214 210 215 207 207 216 225 216 202 198 214 209 230 258 173 219 263 189 155 164 162 84 81 66 71
336 327 306 293 266 270 311 279 259 254 231 236 245 243 241 230 243 219 225 237 204 206 219 216 231 222 214 197 227 234 232 249 263 152 234 292 124 305 85 92 103 97 94
318 314 313 282 280 275 240 248 249 254 263 260 247 244 234 229 211 221 223 238 244 214 217 242 256 288 306 176 251 187 254 263 280 147 169 284 143 305 111 124 136 135 124
315 315 308 304 302 274 228 230 236 251 257 251 251 243 235 230 213 216 207 217 223 249 210 215 221 259 265 262 172 239 319 307 277 254 137 278 130 277 123 129 146 141 137
297 293 293 298 286 282 265 217 225 241 244 257 257 251 242 239 231 201 212 216 221 231 216 194 174 108 116 153 159 190 211 216 258 247 184 213 260 308 267 149 149 157 160
276 284 304 304 298 292 306 269 220 252 239 236 241 240 228 239 232 210 212 222 217 212 205 151 156 104 143 158 150 206 258 262 278 279 86 188 288 341 293 128 159 172 174